K4LEN Weather Reports


time (UTC)temp
C
wind
direction
speed
KPH
gust
KPH
rain 1hr
cm
rain 24hr
cm
rain mn
cm
humidity
%
barometer
mb
20260510205346 27 257 0.0 0.0 0.00 0.00 0.00 47 1018.9
20260510204345 28 260 4.8 4.8 0.00 0.00 0.00 45 1019.0
20260510203344 27 237 1.6 1.6 0.00 0.00 0.00 47 1019.0
20260510202340 26 291 4.8 4.8 0.00 0.00 0.00 52 1019.3
20260510201340 27 328 6.4 8.0 0.00 0.00 0.00 52 1019.6
20260510200335 27 286 3.2 3.2 0.00 0.00 0.00 42 1019.8
20260510195333 27 299 3.2 3.2 0.00 0.00 0.00 45 1019.5
20260510194331 27 284 3.2 3.2 0.00 0.00 0.00 42 1019.7
20260510193327 27 218 1.6 1.6 0.00 0.00 0.00 42 1019.6
20260510192324 27 240 0.0 1.6 0.00 0.00 0.00 41 1019.8
20260510191323 27 218 8.0 9.7 0.00 0.00 0.00 46 1019.9
20260510190319 27 240 1.6 3.2 0.00 0.00 0.00 45 1019.8
20260510185318 27 234 1.6 1.6 0.00 0.00 0.00 45 1019.8
20260510184318 26 254 1.6 1.6 0.00 0.00 0.00 47 1019.9
20260510183314 27 239 1.6 3.2 0.00 0.00 0.00 48 1019.8
20260510182313 26 226 4.8 4.8 0.00 0.00 0.00 47 1020.2
20260510181311 26 264 0.0 0.0 0.00 0.00 0.00 49 1020.1
20260510180310 26 267 3.2 4.8 0.00 0.00 0.00 49 1020.1
20260510175309 26 320 4.8 8.0 0.00 0.00 0.00 49 1020.6
20260510174303 26 343 3.2 3.2 0.00 0.00 0.00 49 1020.5
20260510173300 27 257 1.6 1.6 0.00 0.00 0.00 49 1020.4
20260510172258 26 216 6.4 8.0 0.00 0.00 0.00 52 1020.6
20260510171257 25 235 3.2 3.2 0.00 0.00 0.00 52 1020.5
20260510170257 25 170 1.6 3.2 0.00 0.00 0.00 53 1020.6
20260510165254 25 222 6.4 8.0 0.00 0.00 0.00 56 1020.7
20260510164255 26 227 4.8 4.8 0.00 0.00 0.00 58 1020.7
20260510163250 26 290 3.2 3.2 0.00 0.00 0.00 57 1020.6
20260510162248 25 271 3.2 4.8 0.00 0.00 0.00 59 1020.4
20260510161245 24 278 3.2 3.2 0.00 0.00 0.00 73 1020.6
20260510160244 23 207 8.0 9.7 0.00 0.00 0.00 74 1020.6
20260510155242 23 204 6.4 8.0 0.00 0.00 0.00 75 1020.7
20260510154239 23 213 6.4 8.0 0.00 0.00 0.00 81 1020.5
20260510153236 22 240 4.8 4.8 0.00 0.00 0.00 82 1020.8
20260510152236 22 232 3.2 3.2 0.00 0.00 0.00 84 1020.8
20260510151231 22 225 1.6 1.6 0.00 0.00 0.00 85 1020.5
20260510150228 21 216 6.4 8.0 0.00 0.00 0.00 85 1020.6
20260510145226 22 200 6.4 8.0 0.00 0.00 0.00 86 1020.4
20260510144226 21 224 8.0 9.7 0.00 0.00 0.00 88 1020.6
20260510143223 21 228 3.2 3.2 0.00 0.00 0.00 90 1020.4
20260510142221 20 235 4.8 8.0 0.00 0.00 0.00 92 1020.6
20260510141217 20 228 4.8 4.8 0.00 0.00 0.00 91 1020.5
20260510140213 20 211 8.0 11.3 0.00 0.00 0.00 93 1020.5
20260510135210 19 220 4.8 4.8 0.00 0.00 0.00 95 1020.4
20260510134205 18 246 0.0 0.0 0.00 0.00 0.00 99 1020.4
20260510133202 18 286 4.8 8.0 0.00 0.00 0.00 99 1020.2
20260510132201 17 271 0.0 0.0 0.00 0.00 0.00 99 1020.3
20260510131157 18 255 0.0 0.0 0.00 0.00 0.00 99 1020.0
20260510130156 16 254 0.0 0.0 0.00 0.00 0.00 99 1020.4
20260510125154 16 256 0.0 0.0 0.00 0.00 0.00 99 1020.4
20260510124154 15 253 0.0 0.0 0.00 0.00 0.00 99 1020.4
20260510123152 14 248 0.0 1.6 0.00 0.00 0.00 99 1020.5
20260510122150 13 246 0.0 0.0 0.00 0.00 0.00 99 1020.0
20260510121150 12 246 0.0 0.0 0.00 0.00 0.00 99 1020.0
20260510120149 12 245 0.0 0.0 0.00 0.00 0.00 99 1020.0
20260510115150 12 247 0.0 0.0 0.00 0.00 0.00 99 1019.7
20260510114148 11 247 0.0 0.0 0.00 0.00 0.00 99 1019.4
20260510113146 11 252 0.0 1.6 0.00 0.00 0.00 99 1018.9
20260510112146 11 250 0.0 0.0 0.00 0.00 0.00 99 1018.7
20260510111144 11 245 0.0 0.0 0.00 0.00 0.00 99 1018.4
20260510110143 11 245 0.0 0.0 0.00 0.00 0.00 99 1018.6
20260510105138 11 251 0.0 0.0 0.00 0.00 0.00 99 1018.4
20260510104137 11 251 0.0 0.0 0.00 0.00 0.00 99 1018.6
20260510103137 11 251 0.0 0.0 0.00 0.00 0.00 99 1018.4
20260510102134 11 251 0.0 0.0 0.00 0.00 0.00 99 1018.2
20260510101129 11 251 0.0 0.0 0.00 0.00 0.00 99 1018.0
20260510100128 11 251 0.0 0.0 0.00 0.00 0.00 99 1017.9
20260510095124 11 251 0.0 0.0 0.00 0.00 0.00 99 1018.0
20260510094125 11 251 0.0 0.0 0.00 0.00 0.00 99 1017.9
20260510093124 11 252 0.0 0.0 0.00 0.00 0.00 99 1017.9
20260510092121 11 250 0.0 0.0 0.00 0.00 0.00 99 1017.6
20260510091119 11 250 0.0 0.0 0.00 0.00 0.00 99 1017.7
20260510090118 11 251 1.6 1.6 0.00 0.00 0.00 99 1017.8
20260510085115 11 252 0.0 0.0 0.00 0.00 0.00 99 1017.7
20260510084114 12 252 0.0 0.0 0.00 0.00 0.00 99 1017.6
20260510083113 11 252 0.0 0.0 0.00 0.00 0.00 99 1017.7
20260510082111 11 252 0.0 0.0 0.00 0.00 0.00 99 1017.7
20260510081107 12 252 0.0 0.0 0.00 0.00 0.00 99 1017.7
20260510080104 12 252 0.0 0.0 0.00 0.00 0.00 99 1017.5
20260510075104 12 252 0.0 0.0 0.00 0.00 0.00 99 1017.3
20260510074103 12 252 0.0 0.0 0.00 0.00 0.00 99 1017.4
20260510073102 12 252 0.0 0.0 0.00 0.00 0.00 99 1016.9
20260510072100 12 252 0.0 0.0 0.00 0.00 0.00 99 1016.9
20260510071100 12 252 0.0 0.0 0.00 0.00 0.00 99 1017.1
20260510070100 12 251 0.0 0.0 0.00 0.00 0.00 99 1017.1
20260510065058 12 252 0.0 0.0 0.00 0.00 0.00 99 1017.2
20260510064058 12 251 0.0 0.0 0.00 0.00 0.00 99 1017.0
20260510063057 12 251 0.0 0.0 0.00 0.00 0.00 99 1017.1
20260510062054 12 252 0.0 0.0 0.00 0.00 0.00 99 1016.8
20260510061054 12 251 0.0 0.0 0.00 0.00 0.00 99 1017.2
20260510060052 12 251 0.0 0.0 0.00 0.00 0.00 99 1017.1
20260510055053 12 251 0.0 0.0 0.00 0.00 0.00 99 1017.1
20260510054049 13 252 0.0 0.0 0.00 0.00 0.00 99 1017.2
20260510053046 12 252 0.0 0.0 0.00 0.00 0.00 99 1017.2
20260510052044 13 252 0.0 0.0 0.00 0.00 0.00 99 1017.1
20260510051042 12 252 0.0 0.0 0.00 0.00 0.00 99 1017.2
20260510050042 13 252 0.0 0.0 0.00 0.00 0.00 99 1017.4
20260510045041 12 252 0.0 0.0 0.00 0.00 0.00 99 1017.3
20260510044036 13 252 0.0 0.0 0.00 0.00 0.00 99 1017.2
20260510043033 13 252 0.0 0.0 0.00 0.00 0.00 99 1017.2
20260510042027 12 252 0.0 0.0 0.00 0.00 0.00 99 1017.0
20260510041022 13 252 0.0 0.0 0.00 0.00 0.00 99 1017.1
20260510040021 13 252 0.0 0.0 0.00 0.00 0.00 99 1017.3
20260510035016 13 252 0.0 0.0 0.00 0.00 0.00 99 1017.4
20260510034012 13 252 0.0 0.0 0.00 0.00 0.00 98 1017.1
20260510033006 13 252 1.6 1.6 0.00 0.00 0.00 98 1017.1
20260510032002 13 251 0.0 0.0 0.00 0.00 0.00 98 1017.1
20260510031000 13 251 0.0 0.0 0.00 0.00 0.00 97 1017.1
20260510025958 14 251 0.0 0.0 0.00 0.00 0.00 97 1017.2
20260510024953 14 252 0.0 0.0 0.00 0.00 0.00 96 1016.6
20260510023951 15 252 0.0 0.0 0.00 0.00 0.00 96 1016.7
20260510022951 15 252 0.0 0.0 0.00 0.00 0.00 95 1016.6
20260510021949 15 253 1.6 1.6 0.00 0.00 0.00 95 1016.7
20260510020944 15 248 0.0 0.0 0.00 0.00 0.00 95 1016.6
20260510015940 15 248 0.0 0.0 0.00 0.00 0.00 94 1016.1
20260510014937 16 248 0.0 0.0 0.00 0.00 0.00 92 1015.9
20260510013938 16 250 0.0 0.0 0.00 0.00 0.00 90 1015.8
20260510012934 17 250 0.0 0.0 0.00 0.00 0.00 89 1015.4
20260510011930 17 250 0.0 0.0 0.00 0.00 0.00 88 1015.1
20260510010927 18 254 1.6 1.6 0.00 0.00 0.00 87 1015.0
20260510005927 18 252 0.0 0.0 0.00 0.00 0.00 84 1014.9
20260510004927 19 257 1.6 3.2 0.00 0.00 0.00 83 1014.7
20260510003922 20 249 0.0 0.0 0.00 0.00 0.00 77 1014.5
20260510002918 21 249 0.0 0.0 0.00 0.00 0.00 74 1014.4
20260510001917 22 254 0.0 0.0 0.00 0.00 0.00 69 1014.4
20260510000912 22 254 0.0 0.0 0.00 0.00 0.00 66 1014.6
20260509235911 23 254 0.0 0.0 0.00 0.00 0.00 64 1014.3
20260509234910 23 264 1.6 1.6 0.00 0.00 0.00 60 1014.5
20260509233905 23 253 0.0 0.0 0.00 0.00 0.00 60 1014.7
20260509232904 23 266 3.2 3.2 0.00 0.00 0.00 61 1014.5
20260509231903 24 253 1.6 1.6 0.00 0.00 0.00 56 1014.4
20260509230858 25 255 1.6 1.6 0.00 0.00 0.00 56 1014.3
20260509225856 25 246 1.6 1.6 0.00 0.00 0.00 55 1014.3
20260509224855 24 254 1.6 1.6 0.00 0.00 0.00 58 1014.3
20260509223854 24 248 0.0 1.6 0.00 0.00 0.00 54 1014.1
20260509222854 25 226 3.2 3.2 0.00 0.00 0.00 54 1014.1
20260509221850 24 252 1.6 1.6 0.00 0.00 0.00 54 1013.9
20260509220849 24 199 0.0 0.0 0.00 0.00 0.00 55 1014.0
20260509215846 23 210 4.8 4.8 0.00 0.00 0.00 54 1013.9
20260509214846 23 227 3.2 3.2 0.00 0.00 0.00 55 1013.7
20260509213846 24 228 3.2 4.8 0.00 0.00 0.00 58 1013.8
20260509212845 25 247 1.6 1.6 0.00 0.00 0.00 56 1013.5
20260509211844 25 250 3.2 3.2 0.00 0.00 0.00 59 1014.0
20260509210842 25 356 6.4 9.7 0.00 0.00 0.00 58 1014.0
20260509205839 24 254 1.6 3.2 0.00 0.00 0.00 62 1014.0